Regional Weather Roundup
Issued by NWS

Home | Current Version | Previous Version | Graphics & Text | Print | Product List | Glossary On
Versions: 1 2 3 4 5 6 7 8 9 10 11 12 13 14 15 16 17 18 19 20 21 22 23 24 25 26 27 28 29 30 31 32 33 34 35 36 37 38 39 40 41 42 43 44 45 46 47 48 49 50
000
ASUS43 KDTX 240710
RWRMI
MICHIGAN HOURLY REGIONAL WEATHER ROUNDUP
NATIONAL WEATHER SERVICE DETROIT/PONTIAC MI
300 AM EDT MON APR 24 2017

NOTE: "FAIR" INDICATES FEW OR NO CLOUDS BELOW 12,000 FEET WITH NO
SIGNIFICANT WEATHER AND/OR OBSTRUCTION TO VISIBILITY.

MIZ047>049-052>055-059>063-066>070-074>076-081>083-240800-
SOUTHEAST LOWER MICHIGAN

CITY           SKY/WX    TMP DP  RH WIND       PRES   REMARKS
ADRIAN         CLEAR     41  36  82 CALM      30.04F
ALMA           MOCLDY    42  39  89 NE6       30.09S
ANN ARBOR      CLEAR     40  36  86 N3        30.04F
BAD AXE        CLOUDY    38  32  78 NE5       30.12S WCI  35
CARO           PTCLDY    39  36  89 NE3       30.10F
DETROIT CITY   CLEAR     42  37  82 NE7       30.07F
DETROIT        PTCLDY    46  39  76 NE7       30.06F
FLINT          PTCLDY    41  36  82 E7        30.09S
GROSSE ILE     CLEAR     44  41  89 NE8       30.04F
HILLSDALE      CLEAR     43  36  75 CALM      30.02F
HOWELL         CLOUDY    44  39  83 NE5       30.06S

CITY           SKY/WX    TMP DP  RH WIND       PRES   REMARKS
JACKSON        CLOUDY    43  36  76 N3        30.04F
LAMBERTVILLE   CLEAR     38  35  87 CALM      30.03F
LANSING        CLOUDY    43  38  82 NE6       30.07F
LAPEER         FAIR      40  37  87 CALM      30.09F
MASON          PTCLDY    44  41  91 NE3       30.06S
MONROE         PTCLDY    40  38  93 CALM      30.04F
MT. CLEMENS    CLEAR     39  38  99 N5        30.06F
PONTIAC        CLOUDY    42  37  82 NE6       30.06F
PORT HOPE        N/A     40  36  86 N12       30.11F WCI  33
PORT HURON     CLEAR     39  36  87 N3        30.09S
TRI CITIES     CLOUDY    42  38  85 E9        30.11S
MIDLAND        FAIR      43  38  82 NE6       30.10S
TROY           CLEAR     43  35  74 NE7       30.09S
SAGINAW HB     CLOUDY    41  36  81 NE8       30.10F
$$
MIZ043>046-050>051-056>058-064>065-071>073-077>080-240800-
SOUTHWEST LOWER MICHIGAN

CITY           SKY/WX    TMP DP  RH WIND       PRES   REMARKS
BATTLE CREEK   PTCLDY    47  40  76 NE3       30.05F
BENTON HARBOR  CLEAR     38  32  79 CALM      30.03F
BIG RAPIDS     CLEAR     41  33  73 SE5       30.08F
COLDWATER      PTCLDY    44  40  84 CALM      30.03F
FREMONT        FAIR      44  35  69 E8        30.05S
HOLLAND        CLEAR     43  36  76 E6        30.04F
GRAND RAPIDS   CLEAR     44  40  85 E8        30.05F
IONIA          FAIR      44  37  78 E8        30.05F
KALAMAZOO      CLOUDY    44  33  65 CALM      30.04F
LUDINGTON      CLEAR     39  34  83 NE5       30.06S
MARSHALL       CLOUDY    42  37  84 CALM      30.04S
MOUNT PLEASANT CLOUDY    40  33  76 N5        30.09F
MUSKEGON       CLEAR     46  39  76 E7        30.05S
SOUTH HAVEN    CLEAR     36  33  88 CALM      30.03F
$$
MIZ016>042-240800-
NORTHERN LOWER MICHIGAN

CITY           SKY/WX    TMP DP  RH WIND       PRES   REMARKS
ALPENA         MOCLDY    34  30  85 N3        30.15S
BEAVER ISLAND  CLOUDY    33  28  79 E8        30.14F WCI  26
BELLAIRE       CLEAR     33  29  85 CALM      30.12F
CADILLAC       CLEAR     34  30  85 NE5       30.07F WCI  30
CHARLEVOIX     CLEAR     36  26  65 E9        30.15F WCI  29
FRANKFORT      CLEAR     38  25  60 E3        30.09S
GAYLORD        CLEAR     36  21  54 E5        30.11F WCI  32
GRAYLING       CLEAR     33  27  76 E3        30.11F
HARBOR SPRINGS CLOUDY    33  26  75 NE7       30.14F WCI  27
HOUGHTON LAKE  CLEAR     38  26  62 NE8       30.10F WCI  32
MANISTEE       CLEAR     37  29  72 E9        30.07F WCI  30
OSCODA         PTCLDY    38  28  68 N3        30.13R
PELLSTON       CLOUDY    33  25  72 N3        30.15F
ROGERS CITY    PTCLDY    36  31  84 NE3       30.16F
TRAVERSE CITY  CLEAR     37  30  75 CALM      30.10F
$$
MIZ007>008-015-240800-
EASTERN UPPER MICHIGAN

CITY           SKY/WX    TMP DP  RH WIND       PRES   REMARKS
KINROSS        CLOUDY    32  26  78 CALM      30.15S
MACKINAC ISLAN PTCLDY    30  27  86 NE7       30.15F WCI  23
NEWBERRY       CLOUDY    30  26  85 CALM      30.14F
S. S. MARIE    MOCLDY    36  25  64 CALM      30.15S
MUNISING         N/A     33  24  69 NE7       30.13F WCI  27
$$
MIZ004>006-011>014-085-240800-
CENTRAL UPPER MICHIGAN

CITY           SKY/WX    TMP DP  RH WIND       PRES   REMARKS
MANISTIQUE     MOCLDY    30  25  81 NE5       30.13F WCI  25
ESCANABA       CLOUDY    31  23  72 NE7       30.13F WCI  24
MENOMINEE      CLEAR     35  27  72 E12       30.11F WCI  27
SAWYER-GWINN   PTCLDY    29  23  76 NE9       30.10F WCI  21
$$
MIZ001>003-009>011-084-240800-
WESTERN UPPER MICHIGAN

CITY           SKY/WX    TMP DP  RH WIND       PRES   REMARKS
IRON MOUNTAIN  CLEAR     30  17  58 E5        30.07F WCI  25
HOUGHTON       CLOUDY    30  19  63 E13       30.10F WCI  20
COPPER HARBOR    N/A     32  22  66 SE5       30.15F WCI  27
IRONWOOD       CLOUDY    32  25  75 E9        30.04F WCI  24
$$

ABBREVIATIONS USED IN REMARKS
   TC - TEMPERATURE IN CELSIUS
  WCI - WIND CHILL INDEX
   HX - HEAT INDEX
  VSB - VISIBILITY





USA.gov is the U.S. government's official web portal to all federal, state and local government web resources and services.